• în România
  • Lista ţărilor
  • Pe 7 zile
  • Temperatura apei
  • Hartă satelitară
  • Meteo pe hartă
  • Widget-uri
  • user-avatar
    Intrare

    Meteo pe oră la Warwick

    Astăzi, 15 August, Miercuri

    Timp Temperatura Precipitaţii Vânt Presiune Umiditate
    00:00 +16°C° 0 mm 3 m/s 757 mmHg 91%
    01:00 +16°C° 0 mm 3 m/s 757 mmHg 91%
    02:00 +16°C° 0 mm 3 m/s 757 mmHg 91%
    03:00 +15°C° 0 mm 4 m/s 757 mmHg 91%
    04:00 +17°C° 0 mm 4 m/s 757 mmHg 89%
    05:00 +17°C° 0 mm 4 m/s 757 mmHg 87%
    06:00 +18°C° 0 mm 3 m/s 757 mmHg 86%
    07:00 +19°C° 0 mm 4 m/s 757 mmHg 84%
    08:00 +19°C° 0 mm 5 m/s 757 mmHg 81%
    09:00 +20°C° 0 mm 5 m/s 757 mmHg 78%
    10:00 +21°C° 0 mm 6 m/s 757 mmHg 75%
    11:00 +21°C° 0 mm 6 m/s 757 mmHg 73%
    12:00 +22°C° 0 mm 6 m/s 757 mmHg 69%
    13:00 +23°C° 0 mm 6 m/s 756 mmHg 67%
    14:00 +23°C° 0 mm 6 m/s 756 mmHg 66%
    15:00 +23°C° 0 mm 7 m/s 756 mmHg 65%
    16:00 +23°C° 0 mm 7 m/s 756 mmHg 67%
    17:00 +22°C° 0 mm 6 m/s 755 mmHg 69%
    18:00 +22°C° 0 mm 6 m/s 755 mmHg 71%
    19:00 +21°C° 0 mm 6 m/s 755 mmHg 75%
    20:00 +20°C° 0 mm 6 m/s 755 mmHg 79%
    21:00 +19°C° 0 mm 5 m/s 755 mmHg 83%
    22:00 +19°C° 0,1 mm 6 m/s 755 mmHg 85%
    23:00 +19°C° 0,1 mm 6 m/s 754 mmHg 86%

    Mâine, 16 August, Joi

    Timp Temperatura Precipitaţii Vânt Presiune Umiditate
    00:00 +19°C° 0,1 mm 6 m/s 754 mmHg 88%
    01:00 +19°C° 0,5 mm 6 m/s 754 mmHg 88%
    02:00 +19°C° 0,5 mm 6 m/s 753 mmHg 89%
    03:00 +19°C° 0,5 mm 6 m/s 753 mmHg 89%
    04:00 +17°C° 1,6 mm 5 m/s 753 mmHg 89%
    05:00 +17°C° 1,6 mm 5 m/s 753 mmHg 90%
    06:00 +17°C° 1,6 mm 4 m/s 753 mmHg 90%
    07:00 +17°C° 2,4 mm 4 m/s 753 mmHg 90%
    08:00 +17°C° 2,4 mm 4 m/s 753 mmHg 89%
    09:00 +15°C° 2,4 mm 4 m/s 753 mmHg 88%
    10:00 +17°C° 0,4 mm 4 m/s 754 mmHg 83%
    11:00 +17°C° 0,4 mm 4 m/s 754 mmHg 78%
    12:00 +17°C° 0,4 mm 4 m/s 754 mmHg 72%
    13:00 +18°C° 0,1 mm 4 m/s 754 mmHg 68%
    14:00 +19°C° 0,1 mm 5 m/s 754 mmHg 64%
    15:00 +20°C° 0,1 mm 5 m/s 754 mmHg 59%
    16:00 +19°C° 0 mm 5 m/s 754 mmHg 61%
    17:00 +19°C° 0 mm 4 m/s 755 mmHg 62%
    18:00 +19°C° 0 mm 4 m/s 755 mmHg 64%
    19:00 +18°C° 0 mm 4 m/s 755 mmHg 69%
    20:00 +16°C° 0 mm 3 m/s 755 mmHg 75%
    21:00 +14°C° 0 mm 3 m/s 756 mmHg 80%
    22:00 +13°C° 0 mm 3 m/s 756 mmHg 83%
    23:00 +13°C° 0 mm 3 m/s 756 mmHg 86%

    Poimâine, 17 August, Vineri

    Timp Temperatura Precipitaţii Vânt Presiune Umiditate
    00:00 +13°C° 0 mm 2 m/s 757 mmHg 88%
    01:00 +13°C° 0 mm 2 m/s 757 mmHg 89%
    02:00 +13°C° 0 mm 2 m/s 757 mmHg 90%
    03:00 +12°C° 0 mm 2 m/s 757 mmHg 91%
    04:00 +12°C° 0 mm 2 m/s 757 mmHg 91%
    05:00 +12°C° 0 mm 2 m/s 758 mmHg 90%
    06:00 +12°C° 0 mm 2 m/s 758 mmHg 90%
    07:00 +13°C° 0 mm 3 m/s 758 mmHg 82%
    08:00 +16°C° 0 mm 3 m/s 758 mmHg 75%
    09:00 +17°C° 0 mm 3 m/s 759 mmHg 68%
    10:00 +18°C° 0 mm 4 m/s 759 mmHg 64%
    11:00 +19°C° 0 mm 4 m/s 759 mmHg 61%
    12:00 +19°C° 0 mm 4 m/s 759 mmHg 58%
    13:00 +20°C° 0 mm 5 m/s 759 mmHg 58%
    14:00 +20°C° 0 mm 5 m/s 759 mmHg 58%
    15:00 +20°C° 0 mm 5 m/s 758 mmHg 57%
    16:00 +20°C° 0 mm 5 m/s 758 mmHg 61%
    17:00 +19°C° 0 mm 5 m/s 758 mmHg 64%
    18:00 +19°C° 0 mm 5 m/s 758 mmHg 68%
    19:00 +18°C° 0 mm 4 m/s 759 mmHg 73%
    20:00 +17°C° 0 mm 4 m/s 759 mmHg 79%
    21:00 +15°C° 0 mm 4 m/s 759 mmHg 84%
    22:00 +15°C° 0 mm 4 m/s 759 mmHg 86%
    23:00 +14°C° 0 mm 4 m/s 759 mmHg 88%

    18 August, Sâmbătă

    Timp Temperatura Precipitaţii Vânt Presiune Umiditate
    00:00 +14°C° 0 mm 5 m/s 759 mmHg 90%
    01:00 +14°C° 0 mm 5 m/s 758 mmHg 90%
    02:00 +15°C° 0 mm 5 m/s 758 mmHg 90%
    03:00 +15°C° 0 mm 5 m/s 758 mmHg 91%
    04:00 +15°C° 0 mm 4 m/s 758 mmHg 90%
    05:00 +15°C° 0 mm 4 m/s 758 mmHg 89%
    06:00 +17°C° 0 mm 4 m/s 758 mmHg 88%
    07:00 +18°C° 0 mm 4 m/s 759 mmHg 83%
    08:00 +19°C° 0 mm 5 m/s 759 mmHg 79%
    09:00 +20°C° 0 mm 5 m/s 759 mmHg 75%
    10:00 +21°C° 0 mm 5 m/s 759 mmHg 71%
    11:00 +22°C° 0 mm 5 m/s 759 mmHg 67%
    12:00 +23°C° 0 mm 5 m/s 759 mmHg 64%
    13:00 +23°C° 0 mm 5 m/s 759 mmHg 63%
    14:00 +25°C° 0 mm 5 m/s 759 mmHg 62%
    15:00 +25°C° 0 mm 5 m/s 759 mmHg 61%
    16:00 +25°C° 0 mm 4 m/s 759 mmHg 63%
    17:00 +23°C° 0 mm 4 m/s 759 mmHg 66%
    18:00 +24°C° 0 mm 3 m/s 759 mmHg 68%
    19:00 +21°C° 0 mm 3 m/s 759 mmHg 74%
    20:00 +20°C° 0 mm 3 m/s 759 mmHg 80%
    21:00 +19°C° 0 mm 3 m/s 760 mmHg 85%
    22:00 +18°C° 0 mm 3 m/s 760 mmHg 87%
    23:00 +17°C° 0 mm 3 m/s 759 mmHg 90%

    19 August, Duminică

    Timp Temperatura Precipitaţii Vânt Presiune Umiditate
    00:00 +17°C° 0 mm 3 m/s 759 mmHg 92%
    01:00 +17°C° 0 mm 3 m/s 759 mmHg 93%
    02:00 +17°C° 0 mm 3 m/s 759 mmHg 94%
    03:00 +16°C° 0 mm 3 m/s 758 mmHg 96%
    04:00 +17°C° 0 mm 4 m/s 758 mmHg 95%
    05:00 +17°C° 0 mm 5 m/s 758 mmHg 94%
    06:00 +17°C° 0 mm 5 m/s 758 mmHg 93%
    07:00 +19°C° 0,1 mm 6 m/s 758 mmHg 91%
    08:00 +19°C° 0,1 mm 6 m/s 757 mmHg 89%
    09:00 +20°C° 0,1 mm 7 m/s 757 mmHg 87%
    10:00 +20°C° 0,1 mm 7 m/s 757 mmHg 84%
    11:00 +21°C° 0,1 mm 7 m/s 757 mmHg 81%
    12:00 +22°C° 0,1 mm 7 m/s 757 mmHg 78%
    13:00 +22°C° 0,1 mm 7 m/s 757 mmHg 76%
    14:00 +22°C° 0,1 mm 7 m/s 757 mmHg 74%
    15:00 +23°C° 0,1 mm 7 m/s 757 mmHg 71%
    16:00 +22°C° 0 mm 6 m/s 757 mmHg 73%
    17:00 +22°C° 0 mm 5 m/s 758 mmHg 75%
    18:00 +22°C° 0 mm 5 m/s 758 mmHg 76%
    19:00 +21°C° 0 mm 4 m/s 758 mmHg 80%
    20:00 +20°C° 0 mm 4 m/s 758 mmHg 84%
    21:00 +19°C° 0 mm 4 m/s 759 mmHg 88%
    22:00 +19°C° 0 mm 3 m/s 759 mmHg 90%
    23:00 +18°C° 0 mm 3 m/s 759 mmHg 92%

    20 August, Luni

    Timp Temperatura Precipitaţii Vânt Presiune Umiditate
    00:00 +18°C° 0 mm 3 m/s 759 mmHg 94%
    01:00 +18°C° 0 mm 3 m/s 759 mmHg 95%
    02:00 +18°C° 0 mm 3 m/s 759 mmHg 95%
    03:00 +18°C° 0 mm 3 m/s 759 mmHg 96%
    04:00 +18°C° 0 mm 3 m/s 759 mmHg 95%
    05:00 +18°C° 0 mm 4 m/s 759 mmHg 94%
    06:00 +18°C° 0 mm 4 m/s 759 mmHg 93%
    07:00 +19°C° 0 mm 4 m/s 759 mmHg 87%
    08:00 +20°C° 0 mm 4 m/s 759 mmHg 81%
    09:00 +21°C° 0 mm 5 m/s 760 mmHg 75%
    10:00 +21°C° 0 mm 4 m/s 760 mmHg 72%
    11:00 +22°C° 0 mm 4 m/s 760 mmHg 69%
    12:00 +22°C° 0 mm 4 m/s 760 mmHg 66%
    13:00 +23°C° 0 mm 4 m/s 760 mmHg 67%
    14:00 +23°C° 0 mm 4 m/s 760 mmHg 67%
    15:00 +23°C° 0 mm 4 m/s 760 mmHg 67%
    16:00 +22°C° 0 mm 4 m/s 760 mmHg 68%
    17:00 +22°C° 0 mm 3 m/s 760 mmHg 69%
    18:00 +22°C° 0 mm 3 m/s 760 mmHg 70%
    19:00 +21°C° 0 mm 3 m/s 761 mmHg 74%
    20:00 +19°C° 0 mm 2 m/s 761 mmHg 78%
    21:00 +18°C° 0 mm 2 m/s 761 mmHg 82%
    22:00 +18°C° 0 mm 2 m/s 761 mmHg 84%
    23:00 +17°C° 0 mm 2 m/s 761 mmHg 87%
    Arată mai mult